www.pogodaiklimat.ru

Погода и климат >> Архив погоды >> Филиппины >> Манила


АРХИВ ПОГОДЫ в Маниле

Время (UTC), дата Ветер
(напр.,м/с)
 
Видим.   Явления Облачность Т
(С)
Тd
(С)
f
(%)
Тe
(С)
Тes
(С)
Комфортность P
(гПа)
Po
(гПа)
Тmin
(С)
Tmax
(С)
R
(мм)
R24
(мм)
S
(см)
18 14.05 СЗ 1 10 км мгла {туман} 6/6 600 м
[Sc]
+30.2 +26.1 79 +46 +46 опасность
перегрева
1009.8 1008.1
21 14.05 штиль 0 10 км мгла {туман} 6/1 600 м
[Cu med, cong Ac As Cs]
+29.1 +25.4 80 +42 +42 опасность
перегрева
1010.5 1008.8
00 15.05 Ю 2 8000 м мгла {туман} 4/4 600 м
[Cu med, cong Ac As Ci fib]
+30.0 +25.6 77 +44 +48 опасность
перегрева
1011.7 1010.0 +28.0
03 15.05 Ю 1 8000 м мгла {туман} 3/3 600 м
[Cu med, cong Ci fib]
+32.9 +25.6 66 +48 +65 опасность
перегрева
1011.7 1010.0
06 15.05 З 2 8000 м мгла {туман} 5/3 540 м
[Cb cap Ac cuf Ci fib]
+34.0 +23.8 55 +45 +55 опасность
перегрева
1009.1 1007.4
09 15.05 З 2 8000 м мгла {туман} 3/3 600 м
[Cu hum Cs]
+33.2 +26.4 68 +50 +52 опасность
перегрева
1008.3 1006.6
12 15.05 СВ 1 6000 м ливневой дождь {гроза} 10/3 540 м
[Cb cap As trans]
+26.7 +25.0 90 +38 +38 очень
душно
1010.5 1008.8 +34.9 8
15 15.05 штиль 0 8000 м мгла {туман} 8/3 600 м
[Sc Ac As Cs]
+28.4 +25.6 85 +42 +42 опасность
перегрева
1010.4 1008.7
18 15.05 штиль 0 8000 м мгла {туман} 9/1 600 м
[St Cs]
+29.1 +26.0 83 +44 +44 опасность
перегрева
1008.7 1007.0
21 15.05 штиль 0 10 км мгла {туман} 4/1 600 м
[Sc Ci fib]
+28.2 +25.6 86 +42 +42 опасность
перегрева
1009.0 1007.3
00 16.05 В 1 8000 м мгла {туман} 4/1 600 м
[Cu hum Ac As Ci fib]
+31.2 +24.3 67 +43 +49 опасность
перегрева
1010.6 1008.9 +26.3 8
03 16.05 ЮЗ 3 12 км мгла {туман} 6/1 600 м
[Cu hum Ci]
+32.8 +21.1 50 +40 +54 опасность
солнечного
удара
1009.5 1007.8
06 16.05 ЮЗ 3 12 км мгла {туман} 6/3 600 м
[Cu med, cong Cs]
+34.8 +21.8 47 +43 +52 опасность
перегрева
1007.6 1005.9
09 16.05 З 4 11 км мгла {туман} 6/3 600 м
[Cu med, cong Cs]
+32.8 +26.4 69 +49 +50 опасность
перегрева
1006.8 1005.1
12 16.05 З 2 10 км мгла {туман} 5/1 600 м
[Cu hum Ci fib]
+31.0 +26.1 75 +46 +46 опасность
перегрева
1008.1 1006.4 +35.5
15 16.05 Ю 3 10 км мгла {туман} 6/3 600 м
[Cu med, cong Ac As]
+30.4 +26.8 81 +47 +47 опасность
перегрева
1009.3 1007.6
18 16.05 ЮЗ 3 10 км мгла {туман} 8/3 600 м
[Cu med, cong Ac As]
+29.6 +27.0 86 +47 +47 опасность
перегрева
1008.4 1006.7
21 16.05 Ю 1 10 км мгла {туман} 8/4 600 м
[Cu med, cong Ac As]
+28.7 +25.7 84 +43 +43 опасность
перегрева
1008.7 1007.0 0.3
00 17.05 З 1 11 км мгла {туман} 8/3 600 м
[Cu med, cong Ac As Ci fib]
+31.4 +25.6 71 +46 +49 опасность
перегрева
1009.6 1007.9 +27.5 0.3
03 17.05 ЮЗ 2 11 км мгла {туман} 8/4 600 м
[Sc diur, vesp Ac As]
+32.9 +26.0 67 +49 +55 опасность
перегрева
1009.6 1007.9
06 17.05 Ю 3 11 км мгла {туман} 9/4 600 м
[Cu med, cong Ac As]
+32.1 +25.0 66 +46 +49 опасность
перегрева
1007.5 1005.8
09 17.05 Ю 3 11 км мгла {туман} 8/3 600 м
[Cu med, cong Cs]
+31.3 +26.6 76 +48 +49 опасность
перегрева
1006.7 1005.0
12 17.05 Ю 3 10 км мгла {туман} 5/1 600 м
[Cu hum Ci fib]
+30.6 +26.1 77 +46 +46 опасность
перегрева
1007.9 1006.2 +33.1
15 17.05 Ю 1 10 км мгла {туман} 6/4 600 м
[Sc diur, vesp Ac cuf]
+30.1 +26.4 81 +46 +46 опасность
перегрева
1009.7 1008.0
18 17.05 З 1 10 км мгла {туман} 3/3 600 м
[Cu med, cong]
+30.1 +25.0 74 +43 +43 опасность
перегрева
1008.1 1006.4
21 17.05 Ю 1 10 км мгла {туман} 5/3 600 м
[Cu med, cong Ac cuf]
+29.7 +25.4 78 +44 +44 опасность
перегрева
1007.7 1006.0
00 18.05 СЗ 1 11 км мгла {туман} 9/5 600 м
[Sc diur, vesp Ac As]
+30.6 +25.8 76 +46 +47 опасность
перегрева
1009.5 1007.8 +27.8
03 18.05 З 2 12 км мгла {туман} 1/1 600 м
[Cu med, cong Ci fib]
+33.1 +23.6 58 +44 +63 опасность
перегрева
1009.5 1007.8
06 18.05 ЮЗ 3 12 км мгла {туман} 1/1 600 м
[Cu med, cong Ci fib]
+32.8 +26.5 70 +50 +62 опасность
перегрева
1007.8 1006.1
09 18.05 ЮЗ 3 12 км мгла {туман} 5/1 600 м
[Cu med, cong Ac As]
+31.6 +26.5 74 +48 +49 опасность
перегрева
1006.9 1005.2
12 18.05 ЮЗ 3 12 км мгла {туман} 1/1 600 м
[Cu hum Ci fib]
+30.6 +26.4 78 +47 +47 опасность
перегрева
1008.7 1007.0 +33.6
15 18.05 СЗ 3 12 км мгла {туман} 1/1 600 м
[Cu hum Ci fib]
+30.3 +27.2 84 +48 +48 опасность
перегрева
1010.1 1008.4
18 18.05 З 2 12 км мгла {туман} 4/4 600 м
[Sc Ci fib]
+29.8 +27.1 85 +47 +47 опасность
перегрева
1009.0 1007.3
21 18.05 З 2 12 км мгла {туман} 6/6 600 м
[Cu med, cong]
+29.7 +27.0 85 +47 +47 опасность
перегрева
1008.7 1007.0
00 19.05 Ю 2 10 км мгла {туман} 6/4 600 м
[Cu med, cong Ac As Ci]
+30.8 +26.2 77 +47 +50 опасность
перегрева
1010.6 1008.9 +28.4
03 19.05 З 1 12 км мгла {туман} 8/3 600 м
[Cu med, cong Cs]
+32.3 +26.7 72 +49 +64 опасность
перегрева
1010.7 1009.0
06 19.05 З 2 12 км мгла {туман} 6/3 600 м
[Cu med, cong Ac cuf Cs]
+32.8 +26.5 70 +50 +59 опасность
перегрева
1008.6 1006.9
09 19.05 З 2 12 км мгла {туман} 6/3 600 м
[Cu med, cong Ac cuf Cs]
+32.5 +26.7 72 +50 +51 опасность
перегрева
1007.7 1006.0
12 19.05 ЮЗ 2 12 км мгла {туман} 6/3 600 м
[Cu med, cong Ac cuf]
+30.8 +27.0 80 +48 +48 опасность
перегрева
1009.4 1007.7 +33.1
15 19.05 штиль 0 10 км зарница {туман} 9/5 540 м
[Cb cap Ac As]
+30.5 +26.6 80 +47 +47 опасность
перегрева
1010.6 1008.9
18 19.05 Ю 2 10 км гроза без осадков {ливн. осадки} 9/4 540 м
[Cb cap Ac As]
+28.1 +24.9 83 +40 +40 очень
душно
1009.1 1007.4 3
21 19.05 штиль 0 10 км мгла {гроза, туман} 6/3 600 м
[Sc diur, vesp Ac cuf]
+29.1 +25.7 82 +43 +43 опасность
перегрева
1008.9 1007.2
00 20.05 Ю 1 11 км мгла {гроза, туман} 8/4 600 м
[Cu med, cong Ac As]
+29.8 +26.7 83 +46 +49 опасность
перегрева
1009.7 1008.0 +26.7 3
03 20.05 З 2 10 км мгла {туман} 6/1 600 м
[Cu med, cong Ac As Cs]
+31.9 +23.3 60 +42 +56 опасность
перегрева
1010.2 1008.5
06 20.05 З 5 12 км мгла {туман} 3/3 540 м
[Cb cap Ac cuf Ci fib]
+33.0 +26.3 68 +49 +55 опасность
перегрева
1008.4 1006.7
09 20.05 З 5 12 км мгла {туман} 9/1 600 м
[Cu med, cong Ac As]
+31.8 +25.6 70 +47 +47 опасность
перегрева
1007.3 1005.6
12 20.05 З 6 10 км мгла {туман} 6/6 600 м
[Cu Sc]
+31.1 +26.1 75 +47 +47 опасность
перегрева
1008.9 1007.2 +33.8
15 20.05 З 2 10 км мгла {туман} 8/8 600 м
[Sc]
+30.5 +25.0 73 +44 +44 опасность
перегрева
1010.0 1008.3
18 20.05 штиль 0 10 км мгла {туман} 9/1 600 м
[Cu hum Cs]
+29.9 +25.2 76 +43 +43 опасность
перегрева
1008.6 1006.9
21 20.05 С 1 10 км мгла {туман} 6/1 600 м
[Cu hum Ac As Cs]
+28.9 +24.4 77 +41 +41 опасность
перегрева
1008.6 1006.9
00 21.05 С 1 8000 м мгла {туман} 4/1 600 м
[Cu hum Ac As Ci fib]
+31.6 +24.5 66 +44 +50 опасность
перегрева
1009.8 1008.1 +27.7
03 21.05 З 3 8000 м мгла {туман} 6/4 540 м
[Cb cap Ac cuf Cs]
+33.0 +24.4 61 +46 +54 опасность
перегрева
1009.6 1007.9
06 21.05 З 5 8000 м мгла {туман} 9/3 540 м
[Cb cap Ac cuf Cs]
+32.8 +25.6 66 +48 +51 опасность
перегрева
1007.4 1005.7
09 21.05 З 4 10 км мгла {туман} 9/1 600 м
[Cu Sc Ac As]
+31.2 +25.2 70 +45 +45 опасность
перегрева
1007.4 1005.7

 

Местоположение метеостанции Манила (Филиппины): широта 14.58 долгота 120.98 высота над уровнем моря 13 м.

В архиве по умолчанию представлена погода в Маниле за последнюю неделю. Архивные данные за месяц целиком и за предыдущие месяцы, начиная с января 2011 года, Вы можете получить, выбрав интересующий диапазон дат из раскрывающегося списка и нажав кнопку "Ввод!".


*Определитесь, кто Вы:
робот инопланетянин человек

Внимание! Время в таблицах - всемирное. Для получения местного времени необходимо прибавить поправку, которая равна 8 ч.

Смотрите также архив погоды в соседних городах и на ближайших метеорологических станциях:

Погода в Научном саду (Филиппины) (6 км)
Погода в Аэропорту Ninoy Aquino (Филиппины) (7 км)
Погода в Сангли Пойнт (Филиппины) (12 км)
Погода в Танае (Филиппины) (41 км)
Погода на Амбулонге (Филиппины) (56 км)
Погода в Инфанте (Филиппины) (75 км)
Погода на Базе ВВС Clark (Филиппины) (80 км)
Погода в Куби Пойнт (Филиппины) (81 км)
Погода в Тайябасе (Филиппины) (89 км)
Погода в Кабанатуане (Филиппины) (100 км)

Пояснения к столбцам:

Ветер - указаны скорость ветра в м/с - средняя за 10 мин, порывы в срок и между сроками (в фигурных скобках) и направление, откуда дует ветер: С - северный, СВ - северо-восточный, В - восточный, ЮВ - юго-восточный, Ю - южный, ЮЗ - юго-западный, З - западный, СЗ - северо-западный.
Видимость - горизонтальная дальность видимости в метрах или километрах. При видимости от 1 до 10 км при отсутствии осадков обычно наблюдается дымка, при ухудшении видимости до 1 км и менее - туман. В сухую погоду видимость может ухудшаться дымом, пылью или мглою.
Явления - указаны атмосферные явления, наблюдавшиеся в срок или в последний час перед сроком; фигурными скобками обозначены явления, наблюдавшиеся между сроками (за 1-3 часа до срока); квадратными скобками обозначены град или гололедные отложения с указанием их диаметра в мм.
Облачность - указаны через наклонную черту общая и нижняя облачность в баллах и высота нижней границы облаков в метрах; квадратными скобками обозначены формы облаков: Ci - перистые, Cs - перисто-слоистые, Cc - перисто-кучевые, Ac - высококучевые, As - высокослоистые, Sc - слоисто-кучевые, Ns - слоисто-дождевые, Cu - кучевые, Cb - кучево-дождевые. Подробнее классификацию облаков см. в Атласе облаков (PDF).
T - Температура воздуха - температура, измеренная на высоте 2 м над землей.
Td - Температура точки росы - температура, при понижении до которой содержащийся в воздухе водяной пар достигнет насыщения.
f - Относительная влажность воздуха - влажноcть воздуха, измеренная на высоте 2 м над землей.
Te - Эффективная температура - температура, которую ощущает одетый по сезону человек в тени. Характеристика душности погоды. При расчете учитывается влияние влажности воздуха и скорости ветра на теплоощущения человека.
Tes - Эффективная температура на солнце - температура, которую ощущает человек, с поправкой на солнечный нагрев. Характеристика знойности погоды. Зависит от высоты солнца над горизонтом, облачности и скорости ветра. Ночью, в пасмурную погоду, а также при ветре 12 м/с и более поправка равна нулю.
P - Атмосферное давление - приведенное к уровню моря атмосферное давление.
Po - Атмосферное давление - измеренное на уровне метеостанции атмосферное давление.
Tmin - Минимальная температура - минимум температуры воздуха на высоте 2 м над землей.
Tmax - Максимальная температура - максимум температуры воздуха на высоте 2 м над землей.
R - Количество осадков - Количество выпавших осадков за период времени, мм. При наведении курсора мыши на число - период времени, за который выпало указанное количество осадков.
R24 - Количество осадков - Количество выпавших осадков за 24 часа, мм.
S - Снежный покров - Высота снежного покрова, см. При наведении курсора мыши на число - состояние снежного покрова и степень покрытия местности в баллах.